Time,TemperatureF,DewpointF,PressureIn,WindDirection,WindDirectionDegrees,WindSpeedMPH,WindSpeedGustMPH,Humidity,HourlyPrecipIn,Conditions,Clouds,dailyrainin,SoftwareType,DateUTC
2013-01-11 00:03:00,64.1,50.3,30.05,NW,315,12.8,23.9,61,0.00,,,0.00,WUHU216HW,2013-01-10 21:03:00,
2013-01-11 00:08:00,64.1,49.9,30.06,North,0,17.7,23.9,60,0.00,,,0.00,WUHU216HW,2013-01-10 21:08:00,
2013-01-11 00:13:00,64.1,49.9,30.06,NNW,338,17.2,22.6,60,0.00,,,0.00,WUHU216HW,2013-01-10 21:13:00,
2013-01-11 00:18:00,63.9,49.8,30.06,NW,315,17.2,21.9,60,0.00,,,0.00,WUHU216HW,2013-01-10 21:18:00,
2013-01-11 00:23:00,63.9,49.8,30.06,NNW,338,15.2,19.9,60,0.00,,,0.00,WUHU216HW,2013-01-10 21:23:00,
2013-01-11 00:28:00,63.9,49.8,30.06,NW,315,15.0,19.9,60,0.00,,,0.00,WUHU216HW,2013-01-10 21:28:00,
2013-01-11 00:33:00,63.9,49.8,30.06,West,270,15.9,22.4,60,0.00,,,0.00,WUHU216HW,2013-01-10 21:33:00,
2013-01-11 00:38:00,63.9,49.8,30.06,WNW,293,19.5,22.4,60,0.00,,,0.00,WUHU216HW,2013-01-10 21:38:00,
2013-01-11 00:43:00,63.7,49.6,30.06,West,270,10.3,23.0,60,0.00,,,0.00,WUHU216HW,2013-01-10 21:43:00,
2013-01-11 00:48:00,63.7,49.6,30.06,NW,315,17.2,23.0,60,0.00,,,0.00,WUHU216HW,2013-01-10 21:48:00,
2013-01-11 00:53:00,63.7,49.6,30.06,NW,315,15.0,21.9,60,0.00,,,0.00,WUHU216HW,2013-01-10 21:53:00,
2013-01-11 00:58:00,63.7,49.6,30.06,NW,315,15.0,23.7,60,0.00,,,0.00,WUHU216HW,2013-01-10 21:58:00,
2013-01-11 01:03:00,63.5,49.4,30.06,NNW,338,13.9,23.7,60,0.00,,,0.00,WUHU216HW,2013-01-10 22:03:00,
2013-01-11 01:08:00,63.5,49.4,30.06,North,0,15.4,22.1,60,0.00,,,0.00,WUHU216HW,2013-01-10 22:08:00,
2013-01-11 01:13:00,63.5,49.4,30.06,NW,315,11.2,22.1,60,0.00,,,0.00,WUHU216HW,2013-01-10 22:13:00,
2013-01-11 01:18:00,63.4,49.2,30.06,NW,315,20.4,22.1,60,0.00,,,0.00,WUHU216HW,2013-01-10 22:18:00,
2013-01-11 01:23:00,63.4,49.2,30.06,NNW,338,14.3,21.9,60,0.00,,,0.00,WUHU216HW,2013-01-10 22:23:00,
2013-01-11 01:28:00,63.4,48.8,30.06,WNW,293,16.6,21.9,59,0.00,,,0.00,WUHU216HW,2013-01-10 22:28:00,
2013-01-11 01:33:00,63.4,48.8,30.07,NNW,338,12.1,20.8,59,0.00,,,0.00,WUHU216HW,2013-01-10 22:33:00,
2013-01-11 01:38:00,63.4,48.8,30.07,NNW,338,16.6,20.4,59,0.00,,,0.00,WUHU216HW,2013-01-10 22:38:00,
2013-01-11 01:43:00,63.2,48.6,30.07,NW,315,17.9,18.6,59,0.00,,,0.00,WUHU216HW,2013-01-10 22:43:00,
2013-01-11 01:48:00,63.2,48.6,30.07,NW,315,13.6,19.5,59,0.00,,,0.00,WUHU216HW,2013-01-10 22:48:00,
2013-01-11 01:53:00,63.2,48.2,30.07,North,0,10.7,24.2,58,0.00,,,0.00,WUHU216HW,2013-01-10 22:53:00,
2013-01-11 01:58:00,63.2,48.2,30.07,NW,315,9.4,24.2,58,0.00,,,0.00,WUHU216HW,2013-01-10 22:58:00,
2013-01-11 02:03:00,63.0,47.4,30.07,NW,315,15.4,23.0,57,0.00,,,0.00,WUHU216HW,2013-01-10 23:03:00,
2013-01-11 02:08:00,63.0,47.4,30.07,NW,315,20.1,21.5,57,0.00,,,0.00,WUHU216HW,2013-01-10 23:08:00,
2013-01-11 02:13:00,63.0,47.4,30.07,NW,315,16.3,23.0,57,0.00,,,0.00,WUHU216HW,2013-01-10 23:13:00,
2013-01-11 02:18:00,63.0,47.4,30.07,NNW,338,15.2,25.9,57,0.00,,,0.00,WUHU216HW,2013-01-10 23:18:00,
2013-01-11 02:23:00,63.0,47.4,30.07,North,0,19.5,25.9,57,0.00,,,0.00,WUHU216HW,2013-01-10 23:23:00,
2013-01-11 02:28:00,63.0,47.0,30.07,NNW,338,21.0,21.5,56,0.00,,,0.00,WUHU216HW,2013-01-10 23:28:00,
2013-01-11 02:33:00,62.8,46.8,30.07,NW,315,14.8,21.5,56,0.00,,,0.00,WUHU216HW,2013-01-10 23:33:00,
2013-01-11 02:38:00,62.8,46.8,30.07,NNW,338,12.8,21.0,56,0.00,,,0.00,WUHU216HW,2013-01-10 23:38:00,
2013-01-11 02:43:00,62.6,46.6,30.07,NNW,338,15.4,20.8,56,0.00,,,0.00,WUHU216HW,2013-01-10 23:43:00,
2013-01-11 02:48:00,62.6,46.6,30.07,NNW,338,12.1,20.8,56,0.00,,,0.00,WUHU216HW,2013-01-10 23:48:00,
2013-01-11 02:53:00,62.6,46.2,30.07,West,270,9.8,20.1,55,0.00,,,0.00,WUHU216HW,2013-01-10 23:53:00,
2013-01-11 02:58:00,62.6,46.2,30.07,NW,315,8.1,22.6,55,0.00,,,0.00,WUHU216HW,2013-01-10 23:58:00,
2013-01-11 03:03:00,62.6,46.2,30.07,NW,315,17.0,23.3,55,0.00,,,0.00,WUHU216HW,2013-01-11 00:03:00,
2013-01-11 03:08:00,62.5,46.0,30.07,NW,315,15.9,26.2,55,0.00,,,0.00,WUHU216HW,2013-01-11 00:08:00,
2013-01-11 03:13:00,62.5,46.0,30.08,West,270,17.2,26.2,55,0.00,,,0.00,WUHU216HW,2013-01-11 00:13:00,
2013-01-11 03:18:00,62.5,46.0,30.08,NNW,338,12.1,21.7,55,0.00,,,0.00,WUHU216HW,2013-01-11 00:18:00,
2013-01-11 03:23:00,62.3,45.4,30.08,NW,315,25.9,25.9,54,0.00,,,0.00,WUHU216HW,2013-01-11 00:23:00,
2013-01-11 03:28:00,62.3,45.4,30.08,North,0,12.1,25.9,54,0.00,,,0.00,WUHU216HW,2013-01-11 00:28:00,
2013-01-11 03:33:00,62.3,45.4,30.08,NW,315,15.9,25.9,54,0.00,,,0.00,WUHU216HW,2013-01-11 00:33:00,
2013-01-11 03:38:00,62.3,45.4,30.08,NW,315,14.3,20.1,54,0.00,,,0.00,WUHU216HW,2013-01-11 00:38:00,
2013-01-11 03:43:00,62.3,45.4,30.08,NW,315,19.0,21.9,54,0.00,,,0.00,WUHU216HW,2013-01-11 00:43:00,
2013-01-11 03:48:00,62.1,44.7,30.08,NW,315,11.4,21.9,53,0.00,,,0.00,WUHU216HW,2013-01-11 00:48:00,
2013-01-11 03:53:00,62.1,44.7,30.09,NW,315,15.4,21.3,53,0.00,,,0.00,WUHU216HW,2013-01-11 00:53:00,
2013-01-11 03:58:00,61.9,44.1,30.09,NW,315,13.4,21.3,52,0.00,,,0.00,WUHU216HW,2013-01-11 00:58:00,
2013-01-11 04:03:00,61.9,44.1,30.09,NNW,338,15.2,23.0,52,0.00,,,0.00,WUHU216HW,2013-01-11 01:03:00,
2013-01-11 04:09:00,61.9,43.6,30.09,NNW,338,17.0,23.0,51,0.00,,,0.00,WUHU216HW,2013-01-11 01:09:00,
2013-01-11 04:13:00,61.9,43.6,30.10,NNW,338,12.8,18.3,51,0.00,,,0.00,WUHU216HW,2013-01-11 01:13:00,
2013-01-11 04:19:00,61.9,43.6,30.10,NW,315,17.9,17.9,51,0.00,,,0.00,WUHU216HW,2013-01-11 01:19:00,
2013-01-11 04:24:00,61.9,43.6,30.10,NW,315,16.8,17.9,51,0.00,,,0.00,WUHU216HW,2013-01-11 01:24:00,
2013-01-11 04:29:00,61.7,43.4,30.10,NW,315,12.8,17.2,51,0.00,,,0.00,WUHU216HW,2013-01-11 01:29:00,
2013-01-11 04:34:00,61.7,43.9,30.11,NW,315,12.8,17.2,52,0.00,,,0.00,WUHU216HW,2013-01-11 01:34:00,
2013-01-11 04:38:00,61.7,43.4,30.11,North,0,16.8,22.4,51,0.00,,,0.00,WUHU216HW,2013-01-11 01:38:00,
2013-01-11 04:44:00,61.7,43.4,30.11,NNW,338,12.8,22.4,51,0.00,,,0.00,WUHU216HW,2013-01-11 01:44:00,
2013-01-11 04:49:00,61.6,43.3,30.12,NW,315,13.9,26.8,51,0.00,,,0.00,WUHU216HW,2013-01-11 01:49:00,
2013-01-11 04:54:00,61.6,43.7,30.11,NNE,23,14.3,26.8,52,0.00,,,0.00,WUHU216HW,2013-01-11 01:54:00,
2013-01-11 04:59:00,61.6,43.7,30.12,NW,315,15.9,22.1,52,0.00,,,0.00,WUHU216HW,2013-01-11 01:59:00,
2013-01-11 05:04:00,61.6,43.7,30.12,NNW,338,13.6,23.7,52,0.00,,,0.00,WUHU216HW,2013-01-11 02:04:00,
2013-01-11 05:09:00,61.6,43.7,30.12,NW,315,20.8,23.7,52,0.00,,,0.00,WUHU216HW,2013-01-11 02:09:00,
2013-01-11 05:14:00,61.4,44.1,30.12,NNW,338,16.3,21.9,53,0.00,,,0.00,WUHU216HW,2013-01-11 02:14:00,
2013-01-11 05:19:00,61.4,44.1,30.12,NW,315,15.4,21.9,53,0.00,,,0.00,WUHU216HW,2013-01-11 02:19:00,
2013-01-11 05:24:00,61.2,43.9,30.12,NNW,338,17.2,20.8,53,0.00,,,0.00,WUHU216HW,2013-01-11 02:24:00,
2013-01-11 05:29:00,61.2,44.4,30.12,NNW,338,14.3,20.8,54,0.00,,,0.00,WUHU216HW,2013-01-11 02:29:00,
2013-01-11 05:34:00,61.2,44.4,30.12,NW,315,15.0,20.8,54,0.00,,,0.00,WUHU216HW,2013-01-11 02:34:00,
2013-01-11 05:39:00,61.2,44.4,30.13,NW,315,14.1,23.7,54,0.00,,,0.00,WUHU216HW,2013-01-11 02:39:00,
2013-01-11 05:44:00,61.2,44.4,30.13,NNW,338,17.0,23.9,54,0.00,,,0.00,WUHU216HW,2013-01-11 02:44:00,
2013-01-11 05:49:00,61.2,44.4,30.13,NNW,338,13.0,25.3,54,0.00,,,0.00,WUHU216HW,2013-01-11 02:49:00,
2013-01-11 05:54:00,61.0,43.7,30.13,West,270,18.8,25.3,53,0.00,,,0.00,WUHU216HW,2013-01-11 02:54:00,
2013-01-11 05:59:00,61.0,44.2,30.14,NW,315,19.7,25.5,54,0.00,,,0.00,WUHU216HW,2013-01-11 02:59:00,
2013-01-11 06:04:00,61.0,44.7,30.14,North,0,19.5,25.5,55,0.00,,,0.00,WUHU216HW,2013-01-11 03:04:00,
2013-01-11 06:09:00,61.0,44.7,30.15,West,270,13.4,21.7,55,0.00,,,0.00,WUHU216HW,2013-01-11 03:09:00,
2013-01-11 06:14:00,60.8,44.6,30.15,North,0,9.2,21.7,55,0.00,,,0.00,WUHU216HW,2013-01-11 03:14:00,
2013-01-11 06:19:00,60.8,44.1,30.15,NW,315,15.0,21.7,54,0.00,,,0.00,WUHU216HW,2013-01-11 03:19:00,
2013-01-11 06:24:00,60.8,43.6,30.15,NW,315,14.8,23.0,53,0.00,,,0.00,WUHU216HW,2013-01-11 03:24:00,
2013-01-11 06:29:00,60.8,43.6,30.15,NW,315,12.8,23.0,53,0.00,,,0.00,WUHU216HW,2013-01-11 03:29:00,
2013-01-11 06:34:00,60.8,43.6,30.16,NW,315,13.0,21.9,53,0.00,,,0.00,WUHU216HW,2013-01-11 03:34:00,
2013-01-11 06:39:00,60.8,43.6,30.16,NW,315,14.3,21.9,53,0.00,,,0.00,WUHU216HW,2013-01-11 03:39:00,
2013-01-11 06:44:00,60.8,43.6,30.17,NNW,338,15.7,23.0,53,0.00,,,0.00,WUHU216HW,2013-01-11 03:44:00,
2013-01-11 06:49:00,60.8,43.6,30.17,NNW,338,13.4,23.0,53,0.00,,,0.00,WUHU216HW,2013-01-11 03:49:00,
2013-01-11 06:54:00,60.8,43.6,30.17,NNW,338,13.4,20.6,53,0.00,,,0.00,WUHU216HW,2013-01-11 03:54:00,
2013-01-11 06:59:00,61.0,43.3,30.18,NW,315,28.2,28.2,52,0.00,,,0.00,WUHU216HW,2013-01-11 03:59:00,
2013-01-11 07:04:00,61.0,42.8,30.17,NW,315,23.7,28.2,51,0.00,,,0.00,WUHU216HW,2013-01-11 04:04:00,
2013-01-11 07:09:00,61.0,43.3,30.18,North,0,11.4,28.2,52,0.00,,,0.00,WUHU216HW,2013-01-11 04:09:00,
2013-01-11 07:14:00,61.0,42.8,30.18,NW,315,11.2,26.6,51,0.00,,,0.00,WUHU216HW,2013-01-11 04:14:00,
2013-01-11 07:19:00,61.0,42.8,30.19,NNW,338,23.0,26.6,51,0.00,,,0.00,WUHU216HW,2013-01-11 04:19:00,
2013-01-11 07:24:00,61.0,43.3,30.19,NW,315,12.8,28.2,52,0.00,,,0.00,WUHU216HW,2013-01-11 04:24:00,
2013-01-11 07:29:00,61.0,43.3,30.19,North,0,11.9,28.2,52,0.00,,,0.00,WUHU216HW,2013-01-11 04:29:00,
2013-01-11 07:34:00,61.0,42.8,30.19,NW,315,17.7,27.5,51,0.00,,,0.00,WUHU216HW,2013-01-11 04:34:00,
2013-01-11 07:39:00,61.0,42.8,30.20,WNW,293,12.1,23.0,51,0.00,,,0.00,WUHU216HW,2013-01-11 04:39:00,
2013-01-11 07:44:00,61.2,42.9,30.20,West,270,17.2,23.0,51,0.00,,,0.00,WUHU216HW,2013-01-11 04:44:00,
2013-01-11 07:49:00,61.2,42.5,30.20,NW,315,15.0,21.5,50,0.00,,,0.00,WUHU216HW,2013-01-11 04:49:00,
2013-01-11 07:54:00,61.2,42.5,30.20,NNW,338,7.8,17.9,50,0.00,,,0.00,WUHU216HW,2013-01-11 04:54:00,
2013-01-11 07:59:00,61.4,43.1,30.21,North,0,8.9,16.1,51,0.00,,,0.00,WUHU216HW,2013-01-11 04:59:00,
2013-01-11 08:00:00,61.4,43.1,30.20,North,0,11.4,16.1,51,0.00,,,0.00,WUHU216HW,2013-01-11 05:00:00,
2013-01-11 08:03:00,61.2,42.5,30.21,NNW,338,10.5,19.5,50,0.00,,,0.00,WUHU216HW,2013-01-11 05:03:00,
2013-01-11 08:08:00,61.4,43.1,30.21,NW,315,8.5,19.5,51,0.00,,,0.00,WUHU216HW,2013-01-11 05:08:00,
2013-01-11 08:13:00,61.4,43.1,30.21,NNW,338,11.9,15.0,51,0.00,,,0.00,WUHU216HW,2013-01-11 05:13:00,
2013-01-11 08:18:00,61.4,42.0,30.21,NW,315,10.1,21.5,49,0.00,,,0.00,WUHU216HW,2013-01-11 05:18:00,
2013-01-11 08:23:00,61.7,42.9,30.21,NNW,338,13.4,21.5,50,0.00,,,0.00,WUHU216HW,2013-01-11 05:23:00,
2013-01-11 08:28:00,61.6,42.2,30.22,WNW,293,15.0,21.7,49,0.00,,,0.00,WUHU216HW,2013-01-11 05:28:00,
2013-01-11 08:33:00,61.6,42.8,30.22,NW,315,20.1,21.7,50,0.00,,,0.00,WUHU216HW,2013-01-11 05:33:00,
2013-01-11 08:38:00,61.6,42.2,30.22,NNW,338,15.9,20.6,49,0.00,,,0.00,WUHU216HW,2013-01-11 05:38:00,
2013-01-11 08:43:00,61.6,42.2,30.22,NNW,338,7.6,20.6,49,0.00,,,0.00,WUHU216HW,2013-01-11 05:43:00,
2013-01-11 08:48:00,61.7,42.4,30.23,NNW,338,9.2,18.1,49,0.00,,,0.00,WUHU216HW,2013-01-11 05:48:00,
2013-01-11 08:53:00,61.7,42.4,30.23,NW,315,12.5,19.2,49,0.00,,,0.00,WUHU216HW,2013-01-11 05:53:00,
2013-01-11 08:58:00,61.7,41.8,30.23,NNW,338,14.8,19.9,48,0.00,,,0.00,WUHU216HW,2013-01-11 05:58:00,
2013-01-11 09:03:00,61.9,41.9,30.23,NNW,338,12.5,19.9,48,0.00,,,0.00,WUHU216HW,2013-01-11 06:03:00,
2013-01-11 09:08:00,61.9,41.9,30.24,West,270,11.4,19.5,48,0.00,,,0.00,WUHU216HW,2013-01-11 06:08:00,
2013-01-11 09:13:00,62.3,42.8,30.24,West,270,19.2,19.2,49,0.00,,,0.00,WUHU216HW,2013-01-11 06:13:00,
2013-01-11 09:18:00,62.3,42.3,30.24,NNW,338,18.1,22.4,48,0.00,,,0.00,WUHU216HW,2013-01-11 06:18:00,
2013-01-11 09:23:00,62.5,42.4,30.24,NNE,23,11.0,22.4,48,0.00,,,0.00,WUHU216HW,2013-01-11 06:23:00,
2013-01-11 09:28:00,62.5,41.9,30.24,WNW,293,24.4,25.5,47,0.00,,,0.00,WUHU216HW,2013-01-11 06:28:00,
2013-01-11 09:33:00,62.6,42.6,30.24,NNW,338,12.8,25.5,48,0.00,,,0.00,WUHU216HW,2013-01-11 06:33:00,
2013-01-11 09:38:00,62.6,42.0,30.24,NW,315,11.4,24.4,47,0.00,,,0.00,WUHU216HW,2013-01-11 06:38:00,
2013-01-11 09:43:00,62.8,41.6,30.25,NW,315,9.8,20.8,46,0.00,,,0.00,WUHU216HW,2013-01-11 06:43:00,
2013-01-11 09:48:00,62.8,41.1,30.24,NNW,338,12.8,22.6,45,0.00,,,0.00,WUHU216HW,2013-01-11 06:48:00,
2013-01-11 09:53:00,62.8,41.1,30.25,NW,315,12.8,22.6,45,0.00,,,0.00,WUHU216HW,2013-01-11 06:53:00,
2013-01-11 09:58:00,62.8,41.1,30.25,NNW,338,16.3,21.7,45,0.00,,,0.00,WUHU216HW,2013-01-11 06:58:00,
2013-01-11 10:03:00,63.0,41.2,30.24,NNW,338,15.9,21.7,45,0.00,,,0.00,WUHU216HW,2013-01-11 07:03:00,
2013-01-11 10:08:00,63.2,41.3,30.24,NNW,338,19.2,19.2,45,0.00,,,0.00,WUHU216HW,2013-01-11 07:08:00,
2013-01-11 10:13:00,63.2,42.0,30.24,NNW,338,15.7,19.2,46,0.00,,,0.00,WUHU216HW,2013-01-11 07:13:00,
2013-01-11 10:18:00,63.4,42.1,30.24,NNW,338,13.6,20.1,46,0.00,,,0.00,WUHU216HW,2013-01-11 07:18:00,
2013-01-11 10:23:00,63.7,41.9,30.24,North,0,15.0,21.0,45,0.00,,,0.00,WUHU216HW,2013-01-11 07:23:00,
2013-01-11 10:28:00,64.1,42.1,30.24,NW,315,16.6,21.0,45,0.00,,,0.00,WUHU216HW,2013-01-11 07:28:00,
2013-01-11 10:33:00,64.1,41.6,30.23,North,0,10.5,19.5,44,0.00,,,0.00,WUHU216HW,2013-01-11 07:33:00,
2013-01-11 10:38:00,64.1,41.1,30.24,NW,315,19.5,19.5,43,0.00,,,0.00,WUHU216HW,2013-01-11 07:38:00,
2013-01-11 10:43:00,64.1,41.6,30.24,WSW,248,15.7,20.1,44,0.00,,,0.00,WUHU216HW,2013-01-11 07:43:00,
2013-01-11 10:48:00,64.1,42.1,30.24,WNW,293,15.9,21.3,45,0.00,,,0.00,WUHU216HW,2013-01-11 07:48:00,
2013-01-11 10:53:00,64.1,41.6,30.23,NNW,338,11.9,21.3,44,0.00,,,0.00,WUHU216HW,2013-01-11 07:53:00,
2013-01-11 10:58:00,64.3,41.1,30.23,NW,315,14.5,19.7,43,0.00,,,0.00,WUHU216HW,2013-01-11 07:58:00,
2013-01-11 11:03:00,64.1,41.1,30.23,NE,45,15.7,21.9,43,0.00,,,0.00,WUHU216HW,2013-01-11 08:03:00,
2013-01-11 11:08:00,64.3,41.8,30.23,NW,315,16.1,21.9,44,0.00,,,0.00,WUHU216HW,2013-01-11 08:08:00,
2013-01-11 11:13:00,64.4,41.3,30.23,NW,315,9.8,20.4,43,0.00,,,0.00,WUHU216HW,2013-01-11 08:13:00,
2013-01-11 11:18:00,64.6,41.0,30.23,NW,315,17.7,20.8,42,0.00,,,0.00,WUHU216HW,2013-01-11 08:18:00,
2013-01-11 11:23:00,64.4,40.8,30.23,NW,315,13.0,20.8,42,0.00,,,0.00,WUHU216HW,2013-01-11 08:23:00,
2013-01-11 11:28:00,64.6,40.3,30.23,NNW,338,11.4,20.1,41,0.00,,,0.00,WUHU216HW,2013-01-11 08:28:00,
2013-01-11 11:33:00,64.8,40.5,30.23,NW,315,11.6,20.1,41,0.00,,,0.00,WUHU216HW,2013-01-11 08:33:00,
2013-01-11 11:38:00,64.8,41.7,30.22,NNW,338,17.2,20.1,43,0.00,,,0.00,WUHU216HW,2013-01-11 08:38:00,
2013-01-11 11:43:00,64.6,42.0,30.22,NE,45,6.3,21.9,44,0.00,,,0.00,WUHU216HW,2013-01-11 08:43:00,
2013-01-11 11:48:00,64.8,40.5,30.22,NNE,23,13.0,23.5,41,0.00,,,0.00,WUHU216HW,2013-01-11 08:48:00,
2013-01-11 11:53:00,64.8,41.0,30.22,NW,315,12.1,23.5,42,0.00,,,0.00,WUHU216HW,2013-01-11 08:53:00,
2013-01-11 11:58:00,65.0,41.2,30.21,NNE,23,12.3,22.8,42,0.00,,,0.00,WUHU216HW,2013-01-11 08:58:00,
2013-01-11 12:03:00,65.2,42.0,30.21,NW,315,9.4,19.2,43,0.00,,,0.00,WUHU216HW,2013-01-11 09:03:00,
2013-01-11 12:08:00,65.7,41.3,30.21,North,0,21.5,21.5,41,0.00,,,0.00,WUHU216HW,2013-01-11 09:08:00,
2013-01-11 12:13:00,65.5,41.1,30.21,WNW,293,15.7,21.5,41,0.00,,,0.00,WUHU216HW,2013-01-11 09:13:00,
2013-01-11 12:18:00,65.2,40.9,30.21,WNW,293,13.9,18.8,41,0.00,,,0.00,WUHU216HW,2013-01-11 09:18:00,
2013-01-11 12:23:00,65.5,41.1,30.21,NNW,338,6.9,20.1,41,0.00,,,0.00,WUHU216HW,2013-01-11 09:23:00,
2013-01-11 12:28:00,65.7,40.8,30.21,NW,315,16.6,21.3,40,0.00,,,0.00,WUHU216HW,2013-01-11 09:28:00,
2013-01-11 12:33:00,65.2,40.2,30.21,NW,315,17.0,21.3,40,0.00,,,0.00,WUHU216HW,2013-01-11 09:33:00,
2013-01-11 12:38:00,65.0,40.1,30.21,NW,315,12.1,23.0,40,0.00,,,0.00,WUHU216HW,2013-01-11 09:38:00,
2013-01-11 12:43:00,65.2,40.2,30.21,NW,315,17.4,23.0,40,0.00,,,0.00,WUHU216HW,2013-01-11 09:43:00,
2013-01-11 12:48:00,65.5,41.1,30.20,NNW,338,21.5,22.4,41,0.00,,,0.00,WUHU216HW,2013-01-11 09:48:00,
2013-01-11 12:53:00,65.5,40.6,30.21,WSW,248,12.1,21.5,40,0.00,,,0.00,WUHU216HW,2013-01-11 09:53:00,
2013-01-11 12:58:00,65.5,41.1,30.20,NNW,338,19.0,22.4,41,0.00,,,0.00,WUHU216HW,2013-01-11 09:58:00,
2013-01-11 13:03:00,65.5,40.6,30.20,NW,315,18.1,22.4,40,0.00,,,0.00,WUHU216HW,2013-01-11 10:03:00,
2013-01-11 13:08:00,65.3,41.0,30.20,NE,45,14.8,23.7,41,0.00,,,0.00,WUHU216HW,2013-01-11 10:08:00,
2013-01-11 13:13:00,65.5,40.6,30.20,North,0,10.5,23.7,40,0.00,,,0.00,WUHU216HW,2013-01-11 10:13:00,
2013-01-11 13:18:00,65.9,40.1,30.20,West,270,16.8,22.4,39,0.00,,,0.00,WUHU216HW,2013-01-11 10:18:00,
2013-01-11 13:23:00,65.2,40.9,30.20,NW,315,24.8,27.1,41,0.00,,,0.00,WUHU216HW,2013-01-11 10:23:00,
2013-01-11 13:28:00,65.2,40.9,30.20,North,0,12.1,27.1,41,0.00,,,0.00,WUHU216HW,2013-01-11 10:28:00,
2013-01-11 13:33:00,65.3,40.4,30.20,NNW,338,15.4,24.8,40,0.00,,,0.00,WUHU216HW,2013-01-11 10:33:00,
2013-01-11 13:38:00,65.5,40.6,30.20,North,0,14.1,18.6,40,0.00,,,0.00,WUHU216HW,2013-01-11 10:38:00,
2013-01-11 13:43:00,65.2,40.2,30.20,NW,315,10.7,18.6,40,0.00,,,0.00,WUHU216HW,2013-01-11 10:43:00,
2013-01-11 13:48:00,64.8,40.5,30.20,NW,315,12.8,18.8,41,0.00,,,0.00,WUHU216HW,2013-01-11 10:48:00,
2013-01-11 13:53:00,64.4,40.1,30.20,North,0,17.2,21.0,41,0.00,,,0.00,WUHU216HW,2013-01-11 10:53:00,
2013-01-11 13:58:00,64.3,40.6,30.20,NW,315,9.8,21.5,42,0.00,,,0.00,WUHU216HW,2013-01-11 10:58:00,
2013-01-11 14:03:00,65.2,39.5,30.20,NW,315,12.1,21.5,39,0.00,,,0.00,WUHU216HW,2013-01-11 11:03:00,
2013-01-11 14:08:00,65.0,40.1,30.20,NNW,338,12.3,22.1,40,0.00,,,0.00,WUHU216HW,2013-01-11 11:08:00,
2013-01-11 14:13:00,65.0,40.1,30.20,NNW,338,17.2,22.1,40,0.00,,,0.00,WUHU216HW,2013-01-11 11:13:00,
2013-01-11 14:18:00,64.6,38.4,30.20,NW,315,20.1,21.5,38,0.00,,,0.00,WUHU216HW,2013-01-11 11:18:00,
2013-01-11 14:23:00,64.4,39.6,30.20,North,0,14.3,21.5,40,0.00,,,0.00,WUHU216HW,2013-01-11 11:23:00,
2013-01-11 14:28:00,64.8,40.0,30.19,NW,315,17.2,24.8,40,0.00,,,0.00,WUHU216HW,2013-01-11 11:28:00,
2013-01-11 14:33:00,64.4,38.9,30.19,NW,315,14.1,24.8,39,0.00,,,0.00,WUHU216HW,2013-01-11 11:33:00,
2013-01-11 14:38:00,64.8,38.5,30.19,NW,315,17.7,22.4,38,0.00,,,0.00,WUHU216HW,2013-01-11 11:38:00,
2013-01-11 14:43:00,64.6,38.4,30.19,North,0,18.3,21.7,38,0.00,,,0.00,WUHU216HW,2013-01-11 11:43:00,
2013-01-11 14:48:00,64.6,39.1,30.19,WNW,293,13.9,21.7,39,0.00,,,0.00,WUHU216HW,2013-01-11 11:48:00,
2013-01-11 14:53:00,64.3,38.0,30.19,NNW,338,17.2,26.6,38,0.00,,,0.00,WUHU216HW,2013-01-11 11:53:00,
2013-01-11 14:58:00,64.4,38.2,30.19,NW,315,17.4,26.6,38,0.00,,,0.00,WUHU216HW,2013-01-11 11:58:00,
2013-01-11 15:03:00,64.4,38.2,30.19,NW,315,11.2,24.4,38,0.00,,,0.00,WUHU216HW,2013-01-11 12:03:00,
2013-01-11 15:08:00,64.4,39.6,30.20,NNW,338,17.0,24.4,40,0.00,,,0.00,WUHU216HW,2013-01-11 12:08:00,
2013-01-11 15:13:00,64.3,40.1,30.20,WNW,293,10.5,23.0,41,0.00,,,0.00,WUHU216HW,2013-01-11 12:13:00,
2013-01-11 15:19:00,64.1,37.8,30.20,NW,315,24.8,24.8,38,0.00,,,0.00,WUHU216HW,2013-01-11 12:19:00,
2013-01-11 15:24:00,63.7,38.3,30.20,North,0,13.4,24.8,39,0.00,,,0.00,WUHU216HW,2013-01-11 12:24:00,
2013-01-11 15:29:00,63.5,39.3,30.21,WNW,293,19.7,26.8,41,0.00,,,0.00,WUHU216HW,2013-01-11 12:29:00,
2013-01-11 15:34:00,63.7,39.5,30.20,NW,315,9.2,26.8,41,0.00,,,0.00,WUHU216HW,2013-01-11 12:34:00,
2013-01-11 15:39:00,63.7,40.2,30.20,NNW,338,14.8,21.3,42,0.00,,,0.00,WUHU216HW,2013-01-11 12:39:00,
2013-01-11 15:44:00,63.7,39.5,30.20,NW,315,20.8,21.3,41,0.00,,,0.00,WUHU216HW,2013-01-11 12:44:00,
2013-01-11 15:49:00,63.5,39.3,30.21,NW,315,17.9,23.3,41,0.00,,,0.00,WUHU216HW,2013-01-11 12:49:00,
2013-01-11 15:54:00,63.2,40.2,30.20,NE,45,12.3,23.3,43,0.00,,,0.00,WUHU216HW,2013-01-11 12:54:00,
2013-01-11 15:59:00,63.4,39.3,30.21,NW,315,16.1,21.5,41,0.00,,,0.00,WUHU216HW,2013-01-11 12:59:00,
2013-01-11 16:04:00,63.0,38.9,30.21,East,90,10.1,22.6,41,0.00,,,0.00,WUHU216HW,2013-01-11 13:04:00,
2013-01-11 16:09:00,63.0,39.4,30.21,NW,315,13.4,22.6,42,0.00,,,0.00,WUHU216HW,2013-01-11 13:09:00,
2013-01-11 16:14:00,62.6,39.7,30.21,NNW,338,12.1,21.9,43,0.00,,,0.00,WUHU216HW,2013-01-11 13:14:00,
2013-01-11 16:19:00,62.8,40.4,30.21,NW,315,17.2,21.9,44,0.00,,,0.00,WUHU216HW,2013-01-11 13:19:00,
2013-01-11 16:24:00,62.6,40.3,30.21,WNW,293,12.8,19.5,44,0.00,,,0.00,WUHU216HW,2013-01-11 13:24:00,
2013-01-11 16:29:00,62.3,40.0,30.21,NW,315,20.4,20.4,44,0.00,,,0.00,WUHU216HW,2013-01-11 13:29:00,
2013-01-11 16:34:00,62.3,39.4,30.21,NNW,338,12.3,20.8,43,0.00,,,0.00,WUHU216HW,2013-01-11 13:34:00,
2013-01-11 16:39:00,61.9,39.6,30.21,NW,315,15.0,20.8,44,0.00,,,0.00,WUHU216HW,2013-01-11 13:39:00,
2013-01-11 16:44:00,61.7,40.1,30.21,NW,315,9.4,21.0,45,0.00,,,0.00,WUHU216HW,2013-01-11 13:44:00,
2013-01-11 16:49:00,61.6,38.7,30.22,NW,315,10.5,21.0,43,0.00,,,0.00,WUHU216HW,2013-01-11 13:49:00,
2013-01-11 16:54:00,61.2,39.0,30.22,NNW,338,11.2,19.9,44,0.00,,,0.00,WUHU216HW,2013-01-11 13:54:00,
2013-01-11 16:59:00,61.2,40.1,30.22,NNW,338,19.2,19.2,46,0.00,,,0.00,WUHU216HW,2013-01-11 13:59:00,
2013-01-11 17:04:00,61.0,38.8,30.22,NNW,338,14.5,19.5,44,0.00,,,0.00,WUHU216HW,2013-01-11 14:04:00,
2013-01-11 17:09:00,60.8,38.7,30.22,NW,315,14.1,19.5,44,0.00,,,0.00,WUHU216HW,2013-01-11 14:09:00,
2013-01-11 17:14:00,60.8,39.2,30.23,NW,315,19.5,19.5,45,0.00,,,0.00,WUHU216HW,2013-01-11 14:14:00,
2013-01-11 17:19:00,60.5,40.1,30.23,NW,315,13.4,22.4,47,0.00,,,0.00,WUHU216HW,2013-01-11 14:19:00,
2013-01-11 17:24:00,60.5,38.9,30.23,NNW,338,18.3,22.4,45,0.00,,,0.00,WUHU216HW,2013-01-11 14:24:00,
2013-01-11 17:29:00,60.5,39.5,30.23,NW,315,17.7,18.3,46,0.00,,,0.00,WUHU216HW,2013-01-11 14:29:00,
2013-01-11 17:34:00,60.3,39.3,30.23,NW,315,15.7,20.8,46,0.00,,,0.00,WUHU216HW,2013-01-11 14:34:00,
2013-01-11 17:39:00,60.1,39.2,30.23,NW,315,20.1,23.5,46,0.00,,,0.00,WUHU216HW,2013-01-11 14:39:00,
2013-01-11 17:44:00,60.1,39.2,30.23,NNW,338,11.9,23.5,46,0.00,,,0.00,WUHU216HW,2013-01-11 14:44:00,
2013-01-11 17:49:00,59.9,39.0,30.24,WNW,293,16.1,21.3,46,0.00,,,0.00,WUHU216HW,2013-01-11 14:49:00,
2013-01-11 17:54:00,59.9,39.6,30.24,NW,315,9.8,22.1,47,0.00,,,0.00,WUHU216HW,2013-01-11 14:54:00,
2013-01-11 17:59:00,59.9,39.0,30.24,NNW,338,13.6,22.1,46,0.00,,,0.00,WUHU216HW,2013-01-11 14:59:00,
2013-01-11 18:04:00,59.8,39.4,30.24,East,90,11.4,18.3,47,0.00,,,0.00,WUHU216HW,2013-01-11 15:04:00,
2013-01-11 18:09:00,59.8,39.4,30.24,WNW,293,10.3,18.3,47,0.00,,,0.00,WUHU216HW,2013-01-11 15:09:00,
2013-01-11 18:14:00,59.8,39.4,30.24,NNW,338,14.8,17.7,47,0.00,,,0.00,WUHU216HW,2013-01-11 15:14:00,
2013-01-11 18:19:00,59.6,39.2,30.24,NW,315,11.6,22.6,47,0.00,,,0.00,WUHU216HW,2013-01-11 15:19:00,
2013-01-11 18:24:00,59.6,39.2,30.24,NNW,338,15.4,22.6,47,0.00,,,0.00,WUHU216HW,2013-01-11 15:24:00,
2013-01-11 18:29:00,59.6,39.2,30.25,NNW,338,15.2,20.4,47,0.00,,,0.00,WUHU216HW,2013-01-11 15:29:00,
2013-01-11 18:34:00,59.4,39.1,30.25,North,0,12.1,18.1,47,0.00,,,0.00,WUHU216HW,2013-01-11 15:34:00,
2013-01-11 18:39:00,59.4,39.1,30.25,NW,315,14.1,16.8,47,0.00,,,0.00,WUHU216HW,2013-01-11 15:39:00,
2013-01-11 18:44:00,59.4,39.7,30.25,West,270,9.2,18.1,48,0.00,,,0.00,WUHU216HW,2013-01-11 15:44:00,
2013-01-11 18:49:00,59.4,39.7,30.25,NNW,338,10.7,18.1,48,0.00,,,0.00,WUHU216HW,2013-01-11 15:49:00,
2013-01-11 18:54:00,59.2,39.5,30.25,NNW,338,12.1,17.2,48,0.00,,,0.00,WUHU216HW,2013-01-11 15:54:00,
2013-01-11 18:59:00,59.2,40.1,30.25,North,0,13.2,17.9,49,0.00,,,0.00,WUHU216HW,2013-01-11 15:59:00,
2013-01-11 19:04:00,59.2,40.1,30.25,WNW,293,10.3,17.9,49,0.00,,,0.00,WUHU216HW,2013-01-11 16:04:00,
2013-01-11 19:09:00,59.0,40.0,30.25,NNW,338,11.0,19.9,49,0.00,,,0.00,WUHU216HW,2013-01-11 16:09:00,
2013-01-11 19:14:00,59.0,40.0,30.25,North,0,11.6,19.9,49,0.00,,,0.00,WUHU216HW,2013-01-11 16:14:00,
2013-01-11 19:19:00,59.0,40.0,30.25,NW,315,11.9,17.9,49,0.00,,,0.00,WUHU216HW,2013-01-11 16:19:00,
2013-01-11 19:24:00,59.0,40.5,30.25,NW,315,10.5,17.9,50,0.00,,,0.00,WUHU216HW,2013-01-11 16:24:00,
2013-01-11 19:29:00,58.9,40.3,30.26,WNW,293,10.3,17.9,50,0.00,,,0.00,WUHU216HW,2013-01-11 16:29:00,
2013-01-11 19:34:00,58.9,40.3,30.26,NNW,338,10.7,18.1,50,0.00,,,0.00,WUHU216HW,2013-01-11 16:34:00,
2013-01-11 19:39:00,58.7,40.1,30.26,NW,315,13.6,19.9,50,0.00,,,0.00,WUHU216HW,2013-01-11 16:39:00,
2013-01-11 19:44:00,58.7,39.6,30.26,WNW,293,13.2,19.9,49,0.00,,,0.00,WUHU216HW,2013-01-11 16:44:00,
2013-01-11 19:49:00,58.7,39.6,30.26,WNW,293,16.3,19.2,49,0.00,,,0.00,WUHU216HW,2013-01-11 16:49:00,
2013-01-11 19:54:00,58.7,39.6,30.26,NW,315,12.1,20.6,49,0.00,,,0.00,WUHU216HW,2013-01-11 16:54:00,
2013-01-11 19:59:00,58.7,39.6,30.26,NNW,338,17.0,20.6,49,0.00,,,0.00,WUHU216HW,2013-01-11 16:59:00,
2013-01-11 20:04:00,58.5,39.4,30.26,NW,315,11.2,17.0,49,0.00,,,0.00,WUHU216HW,2013-01-11 17:04:00,
2013-01-11 20:09:00,58.5,39.4,30.26,NNW,338,8.7,17.0,49,0.00,,,0.00,WUHU216HW,2013-01-11 17:09:00,
2013-01-11 20:14:00,58.5,39.4,30.26,NNW,338,9.6,17.0,49,0.00,,,0.00,WUHU216HW,2013-01-11 17:14:00,
2013-01-11 20:19:00,58.5,39.4,30.26,West,270,8.5,15.2,49,0.00,,,0.00,WUHU216HW,2013-01-11 17:19:00,
2013-01-11 20:24:00,58.5,39.4,30.26,NNW,338,10.5,15.7,49,0.00,,,0.00,WUHU216HW,2013-01-11 17:24:00,
2013-01-11 20:29:00,58.5,40.1,30.26,NW,315,8.5,16.3,50,0.00,,,0.00,WUHU216HW,2013-01-11 17:29:00,
2013-01-11 20:34:00,58.3,39.9,30.26,NW,315,7.4,17.4,50,0.00,,,0.00,WUHU216HW,2013-01-11 17:34:00,
2013-01-11 20:39:00,58.3,39.9,30.27,North,0,6.9,17.4,50,0.00,,,0.00,WUHU216HW,2013-01-11 17:39:00,
2013-01-11 20:44:00,58.3,40.3,30.26,WNW,293,8.9,13.2,51,0.00,,,0.00,WUHU216HW,2013-01-11 17:44:00,
2013-01-11 20:49:00,58.3,40.3,30.27,NW,315,10.5,12.8,51,0.00,,,0.00,WUHU216HW,2013-01-11 17:49:00,
2013-01-11 20:54:00,58.3,40.3,30.27,NW,315,11.9,14.8,51,0.00,,,0.00,WUHU216HW,2013-01-11 17:54:00,
2013-01-11 20:59:00,58.3,40.3,30.27,NNE,23,8.5,14.8,51,0.00,,,0.00,WUHU216HW,2013-01-11 17:59:00,
2013-01-11 21:04:00,58.1,40.1,30.27,NW,315,7.2,14.8,51,0.00,,,0.00,WUHU216HW,2013-01-11 18:04:00,
2013-01-11 21:09:00,58.1,40.1,30.27,West,270,7.8,13.4,51,0.00,,,0.00,WUHU216HW,2013-01-11 18:09:00,
2013-01-11 21:14:00,58.0,40.5,30.27,NW,315,10.5,13.4,52,0.00,,,0.00,WUHU216HW,2013-01-11 18:14:00,
2013-01-11 21:19:00,58.0,40.5,30.26,NW,315,7.8,12.3,52,0.00,,,0.00,WUHU216HW,2013-01-11 18:19:00,
2013-01-11 21:24:00,58.0,40.5,30.27,NW,315,7.6,12.8,52,0.00,,,0.00,WUHU216HW,2013-01-11 18:24:00,
2013-01-11 21:29:00,58.0,40.5,30.26,NNW,338,13.6,16.8,52,0.00,,,0.00,WUHU216HW,2013-01-11 18:29:00,
2013-01-11 21:35:00,58.0,40.5,30.27,NW,315,6.9,16.8,52,0.00,,,0.00,WUHU216HW,2013-01-11 18:35:00,
2013-01-11 21:40:00,58.0,41.0,30.27,NW,315,7.6,13.6,53,0.00,,,0.00,WUHU216HW,2013-01-11 18:40:00,
2013-01-11 21:45:00,58.0,41.0,30.26,WNW,293,10.3,16.6,53,0.00,,,0.00,WUHU216HW,2013-01-11 18:45:00,
2013-01-11 21:50:00,58.0,41.0,30.27,NNW,338,5.1,16.6,53,0.00,,,0.00,WUHU216HW,2013-01-11 18:50:00,
2013-01-11 21:55:00,57.8,40.8,30.26,WNW,293,10.5,13.0,53,0.00,,,0.00,WUHU216HW,2013-01-11 18:55:00,
2013-01-11 22:00:00,57.8,40.8,30.26,WSW,248,7.4,16.6,53,0.00,,,0.00,WUHU216HW,2013-01-11 19:00:00,
2013-01-11 22:05:00,57.6,40.6,30.26,NW,315,13.0,16.6,53,0.00,,,0.00,WUHU216HW,2013-01-11 19:05:00,
2013-01-11 22:10:00,57.6,41.0,30.26,NNW,338,9.4,14.5,54,0.00,,,0.00,WUHU216HW,2013-01-11 19:10:00,
2013-01-11 22:15:00,57.4,41.0,30.26,WNW,293,10.5,14.5,54,0.00,,,0.00,WUHU216HW,2013-01-11 19:15:00,
2013-01-11 22:20:00,57.4,41.0,30.26,NNW,338,9.4,15.0,54,0.00,,,0.00,WUHU216HW,2013-01-11 19:20:00,
2013-01-11 22:25:00,57.4,41.0,30.26,NW,315,13.4,15.9,54,0.00,,,0.00,WUHU216HW,2013-01-11 19:25:00,
2013-01-11 22:30:00,57.2,40.8,30.26,NW,315,14.5,15.9,54,0.00,,,0.00,WUHU216HW,2013-01-11 19:30:00,
2013-01-11 22:35:00,57.2,40.8,30.26,West,270,12.1,17.2,54,0.00,,,0.00,WUHU216HW,2013-01-11 19:35:00,
2013-01-11 22:41:00,57.2,40.8,30.26,NW,315,16.3,17.2,54,0.00,,,0.00,WUHU216HW,2013-01-11 19:41:00,
2013-01-11 22:46:00,57.2,40.8,30.26,NW,315,10.3,16.8,54,0.00,,,0.00,WUHU216HW,2013-01-11 19:46:00,
2013-01-11 22:51:00,57.2,40.8,30.26,North,0,16.8,17.7,54,0.00,,,0.00,WUHU216HW,2013-01-11 19:51:00,
2013-01-11 22:56:00,57.1,40.6,30.25,NW,315,12.3,17.7,54,0.00,,,0.00,WUHU216HW,2013-01-11 19:56:00,
2013-01-11 23:01:00,57.1,40.6,30.25,NNW,338,12.8,16.6,54,0.00,,,0.00,WUHU216HW,2013-01-11 20:01:00,
2013-01-11 23:06:00,57.2,40.8,30.25,NW,315,11.9,17.2,54,0.00,,,0.00,WUHU216HW,2013-01-11 20:06:00,
2013-01-11 23:11:00,57.1,40.6,30.25,North,0,12.1,17.2,54,0.00,,,0.00,WUHU216HW,2013-01-11 20:11:00,
2013-01-11 23:16:00,57.1,40.6,30.26,NNW,338,11.9,17.2,54,0.00,,,0.00,WUHU216HW,2013-01-11 20:16:00,
2013-01-11 23:21:00,57.1,41.0,30.25,NW,315,10.5,17.2,55,0.00,,,0.00,WUHU216HW,2013-01-11 20:21:00,
2013-01-11 23:26:00,56.9,40.9,30.25,NW,315,12.8,13.6,55,0.00,,,0.00,WUHU216HW,2013-01-11 20:26:00,
2013-01-11 23:31:00,56.9,40.9,30.25,WNW,293,9.4,15.7,55,0.00,,,0.00,WUHU216HW,2013-01-11 20:31:00,
2013-01-11 23:36:00,56.9,40.9,30.25,NW,315,14.1,15.7,55,0.00,,,0.00,WUHU216HW,2013-01-11 20:36:00,
2013-01-11 23:41:00,56.9,40.9,30.25,NW,315,8.9,14.8,55,0.00,,,0.00,WUHU216HW,2013-01-11 20:41:00,
2013-01-11 23:46:00,56.9,40.9,30.25,West,270,10.3,15.4,55,0.00,,,0.00,WUHU216HW,2013-01-11 20:46:00,
2013-01-11 23:51:00,56.9,40.9,30.25,NW,315,17.9,17.9,55,0.00,,,0.00,WUHU216HW,2013-01-11 20:51:00,
2013-01-11 23:56:00,56.9,40.9,30.25,NW,315,10.5,17.9,55,0.00,,,0.00,WUHU216HW,2013-01-11 20:56:00,